[{"OBJECT_NAME":"COSMOS 2492 (754)","OBJECT_ID":"2014-012A","EPOCH":"2026-09-10T17:50:25.096992","MEAN_MOTION":2.13103162,"ECCENTRICITY":0.00115371,"INCLINATION":65.2426,"RA_OF_ASC_NODE":311.0251,"ARG_OF_PERICENTER":307.9222,"MEAN_ANOMALY":52.0528,"EPHEMERIS_TYPE":0,"CLASSIFICATION_TYPE":"U","NORAD_CAT_ID":39620,"ELEMENT_SET_NO":999,"REV_AT_EPOCH":9706,"BSTAR":0,"MEAN_MOTION_DOT":-3.4e-7,"MEAN_MOTION_DDOT":0},{"OBJECT_NAME":"IRNSS-1B","OBJECT_ID":"2014-017A","EPOCH":"2026-09-12T00:10:44.143968","MEAN_MOTION":1.00269719,"ECCENTRICITY":0.00203538,"INCLINATION":28.7769,"RA_OF_ASC_NODE":238.9116,"ARG_OF_PERICENTER":191.5497,"MEAN_ANOMALY":338.329,"EPHEMERIS_TYPE":0,"CLASSIFICATION_TYPE":"U","NORAD_CAT_ID":39635,"ELEMENT_SET_NO":999,"REV_AT_EPOCH":4566,"BSTAR":0,"MEAN_MOTION_DOT":9.4e-7,"MEAN_MOTION_DDOT":0},{"OBJECT_NAME":"LUCH 5V (SDCM/PRN 141)","OBJECT_ID":"2014-023A","EPOCH":"2026-09-12T00:40:05.422656","MEAN_MOTION":1.00270837,"ECCENTRICITY":0.00026582,"INCLINATION":5.3446,"RA_OF_ASC_NODE":68.7928,"ARG_OF_PERICENTER":139.8943,"MEAN_ANOMALY":247.126,"EPHEMERIS_TYPE":0,"CLASSIFICATION_TYPE":"U","NORAD_CAT_ID":39727,"ELEMENT_SET_NO":999,"REV_AT_EPOCH":4523,"BSTAR":0,"MEAN_MOTION_DOT":-0.00000281,"MEAN_MOTION_DDOT":0},{"OBJECT_NAME":"GPS BIIF-6  (PRN 06)","OBJECT_ID":"2014-026A","EPOCH":"2026-09-12T05:11:38.456448","MEAN_MOTION":2.00554703,"ECCENTRICITY":0.00392931,"INCLINATION":56.4493,"RA_OF_ASC_NODE":328.1268,"ARG_OF_PERICENTER":324.1701,"MEAN_ANOMALY":35.6287,"EPHEMERIS_TYPE":0,"CLASSIFICATION_TYPE":"U","NORAD_CAT_ID":39741,"ELEMENT_SET_NO":999,"REV_AT_EPOCH":9028,"BSTAR":0,"MEAN_MOTION_DOT":-9e-7,"MEAN_MOTION_DDOT":0},{"OBJECT_NAME":"COSMOS 2500 (755)","OBJECT_ID":"2014-032A","EPOCH":"2026-09-08T02:18:57.301920","MEAN_MOTION":2.13105882,"ECCENTRICITY":0.00094804,"INCLINATION":65.1795,"RA_OF_ASC_NODE":310.8561,"ARG_OF_PERICENTER":202.9458,"MEAN_ANOMALY":157.0874,"EPHEMERIS_TYPE":0,"CLASSIFICATION_TYPE":"U","NORAD_CAT_ID":40001,"ELEMENT_SET_NO":999,"REV_AT_EPOCH":9522,"BSTAR":0,"MEAN_MOTION_DOT":-2.6e-7,"MEAN_MOTION_DDOT":0},{"OBJECT_NAME":"GPS BIIF-7  (PRN 09)","OBJECT_ID":"2014-045A","EPOCH":"2026-09-11T19:22:48.412128","MEAN_MOTION":2.00564033,"ECCENTRICITY":0.00363455,"INCLINATION":55.4149,"RA_OF_ASC_NODE":85.0144,"ARG_OF_PERICENTER":119.86,"MEAN_ANOMALY":240.566,"EPHEMERIS_TYPE":0,"CLASSIFICATION_TYPE":"U","NORAD_CAT_ID":40105,"ELEMENT_SET_NO":999,"REV_AT_EPOCH":8781,"BSTAR":0,"MEAN_MOTION_DOT":3e-8,"MEAN_MOTION_DDOT":0},{"OBJECT_NAME":"GSAT0201 (GALILEO 5)","OBJECT_ID":"2014-050A","EPOCH":"2026-09-12T04:38:39.647616","MEAN_MOTION":1.85519597,"ECCENTRICITY":0.16863369,"INCLINATION":48.7843,"RA_OF_ASC_NODE":269.8594,"ARG_OF_PERICENTER":182.7547,"MEAN_ANOMALY":176.1917,"EPHEMERIS_TYPE":0,"CLASSIFICATION_TYPE":"U","NORAD_CAT_ID":40128,"ELEMENT_SET_NO":999,"REV_AT_EPOCH":7993,"BSTAR":0,"MEAN_MOTION_DOT":-3.4e-7,"MEAN_MOTION_DDOT":0},{"OBJECT_NAME":"GSAT0202 (GALILEO 6)","OBJECT_ID":"2014-050B","EPOCH":"2026-09-11T08:53:55.337568","MEAN_MOTION":1.85520202,"ECCENTRICITY":0.16877405,"INCLINATION":48.8022,"RA_OF_ASC_NODE":268.9798,"ARG_OF_PERICENTER":183.432,"MEAN_ANOMALY":175.2535,"EPHEMERIS_TYPE":0,"CLASSIFICATION_TYPE":"U","NORAD_CAT_ID":40129,"ELEMENT_SET_NO":999,"REV_AT_EPOCH":8208,"BSTAR":0,"MEAN_MOTION_DOT":-2.9e-7,"MEAN_MOTION_DDOT":0},{"OBJECT_NAME":"IRNSS-1C","OBJECT_ID":"2014-061A","EPOCH":"2026-09-12T02:19:25.896864","MEAN_MOTION":1.00271316,"ECCENTRICITY":0.0020178,"INCLINATION":6.7331,"RA_OF_ASC_NODE":87.256,"ARG_OF_PERICENTER":9.851,"MEAN_ANOMALY":11.9244,"EPHEMERIS_TYPE":0,"CLASSIFICATION_TYPE":"U","NORAD_CAT_ID":40269,"ELEMENT_SET_NO":999,"REV_AT_EPOCH":4356,"BSTAR":0,"MEAN_MOTION_DOT":-0.00000174,"MEAN_MOTION_DDOT":0},{"OBJECT_NAME":"GPS BIIF-8  (PRN 03)","OBJECT_ID":"2014-068A","EPOCH":"2026-09-11T16:16:45.761088","MEAN_MOTION":2.00556705,"ECCENTRICITY":0.00670688,"INCLINATION":57.0446,"RA_OF_ASC_NODE":27.6301,"ARG_OF_PERICENTER":73.7719,"MEAN_ANOMALY":286.9591,"EPHEMERIS_TYPE":0,"CLASSIFICATION_TYPE":"U","NORAD_CAT_ID":40294,"ELEMENT_SET_NO":999,"REV_AT_EPOCH":8694,"BSTAR":0,"MEAN_MOTION_DOT":-9.1e-7,"MEAN_MOTION_DDOT":0},{"OBJECT_NAME":"COSMOS 2501 (702K)","OBJECT_ID":"2014-075A","EPOCH":"2026-09-11T15:27:54.239328","MEAN_MOTION":2.13101274,"ECCENTRICITY":0.00221915,"INCLINATION":63.6173,"RA_OF_ASC_NODE":187.3806,"ARG_OF_PERICENTER":210.5501,"MEAN_ANOMALY":149.3143,"EPHEMERIS_TYPE":0,"CLASSIFICATION_TYPE":"U","NORAD_CAT_ID":40315,"ELEMENT_SET_NO":999,"REV_AT_EPOCH":9169,"BSTAR":0,"MEAN_MOTION_DOT":-2e-8,"MEAN_MOTION_DDOT":0},{"OBJECT_NAME":"GPS BIIF-9  (PRN 26)","OBJECT_ID":"2015-013A","EPOCH":"2026-09-11T07:33:56.458656","MEAN_MOTION":2.00570877,"ECCENTRICITY":0.01127711,"INCLINATION":53.158,"RA_OF_ASC_NODE":200.6179,"ARG_OF_PERICENTER":41.0484,"MEAN_ANOMALY":319.7596,"EPHEMERIS_TYPE":0,"CLASSIFICATION_TYPE":"U","NORAD_CAT_ID":40534,"ELEMENT_SET_NO":999,"REV_AT_EPOCH":8355,"BSTAR":0,"MEAN_MOTION_DOT":-1.5e-7,"MEAN_MOTION_DDOT":0},{"OBJECT_NAME":"GSAT0203 (GALILEO 7)","OBJECT_ID":"2015-017A","EPOCH":"2026-09-09T02:15:32.037120","MEAN_MOTION":1.70476378,"ECCENTRICITY":0.000446,"INCLINATION":56.7527,"RA_OF_ASC_NODE":339.3092,"ARG_OF_PERICENTER":251.6359,"MEAN_ANOMALY":108.3566,"EPHEMERIS_TYPE":0,"CLASSIFICATION_TYPE":"U","NORAD_CAT_ID":40544,"ELEMENT_SET_NO":999,"REV_AT_EPOCH":7063,"BSTAR":0,"MEAN_MOTION_DOT":-0.000001,"MEAN_MOTION_DDOT":0},{"OBJECT_NAME":"GSAT0204 (GALILEO 8)","OBJECT_ID":"2015-017B","EPOCH":"2026-09-11T16:42:58.663584","MEAN_MOTION":1.70475843,"ECCENTRICITY":0.00048357,"INCLINATION":56.7582,"RA_OF_ASC_NODE":339.2572,"ARG_OF_PERICENTER":241.3315,"MEAN_ANOMALY":118.6677,"EPHEMERIS_TYPE":0,"CLASSIFICATION_TYPE":"U","NORAD_CAT_ID":40545,"ELEMENT_SET_NO":999,"REV_AT_EPOCH":3372,"BSTAR":0,"MEAN_MOTION_DOT":-0.00000103,"MEAN_MOTION_DDOT":0},{"OBJECT_NAME":"BEIDOU-3S IGSO-1S (C31)","OBJECT_ID":"2015-019A","EPOCH":"2026-09-10T17:01:05.504736","MEAN_MOTION":1.00288273,"ECCENTRICITY":0.00387109,"INCLINATION":49.0313,"RA_OF_ASC_NODE":294.4241,"ARG_OF_PERICENTER":200.3707,"MEAN_ANOMALY":205.9134,"EPHEMERIS_TYPE":0,"CLASSIFICATION_TYPE":"U","NORAD_CAT_ID":40549,"ELEMENT_SET_NO":999,"REV_AT_EPOCH":4193,"BSTAR":0,"MEAN_MOTION_DOT":-0.00000162,"MEAN_MOTION_DDOT":0},{"OBJECT_NAME":"GPS BIIF-10 (PRN 08)","OBJECT_ID":"2015-033A","EPOCH":"2026-09-10T23:31:43.849632","MEAN_MOTION":2.00551728,"ECCENTRICITY":0.01170888,"INCLINATION":53.9223,"RA_OF_ASC_NODE":263.5429,"ARG_OF_PERICENTER":30.5092,"MEAN_ANOMALY":330.1897,"EPHEMERIS_TYPE":0,"CLASSIFICATION_TYPE":"U","NORAD_CAT_ID":40730,"ELEMENT_SET_NO":999,"REV_AT_EPOCH":8171,"BSTAR":0,"MEAN_MOTION_DOT":-9e-8,"MEAN_MOTION_DDOT":0},{"OBJECT_NAME":"BEIDOU-3S M2S (C58)","OBJECT_ID":"2015-037A","EPOCH":"2026-09-11T05:38:53.800224","MEAN_MOTION":1.86231926,"ECCENTRICITY":0.00116246,"INCLINATION":54.7915,"RA_OF_ASC_NODE":299.0777,"ARG_OF_PERICENTER":259.4932,"MEAN_ANOMALY":100.4462,"EPHEMERIS_TYPE":0,"CLASSIFICATION_TYPE":"U","NORAD_CAT_ID":40748,"ELEMENT_SET_NO":999,"REV_AT_EPOCH":7572,"BSTAR":0,"MEAN_MOTION_DOT":-4.9e-7,"MEAN_MOTION_DDOT":0},{"OBJECT_NAME":"BEIDOU-3S M1S (C57)","OBJECT_ID":"2015-037B","EPOCH":"2026-09-09T06:49:57.474336","MEAN_MOTION":1.86254857,"ECCENTRICITY":0.000181,"INCLINATION":54.7897,"RA_OF_ASC_NODE":299.1308,"ARG_OF_PERICENTER":48.383,"MEAN_ANOMALY":311.7068,"EPHEMERIS_TYPE":0,"CLASSIFICATION_TYPE":"U","NORAD_CAT_ID":40749,"ELEMENT_SET_NO":999,"REV_AT_EPOCH":7569,"BSTAR":0,"MEAN_MOTION_DOT":-3.4e-7,"MEAN_MOTION_DDOT":0},{"OBJECT_NAME":"GSAT0206 (GALILEO 10)","OBJECT_ID":"2015-045B","EPOCH":"2026-09-11T02:21:44.065152","MEAN_MOTION":1.70473136,"ECCENTRICITY":0.00025404,"INCLINATION":54.9256,"RA_OF_ASC_NODE":219.233,"ARG_OF_PERICENTER":349.0399,"MEAN_ANOMALY":10.9008,"EPHEMERIS_TYPE":0,"CLASSIFICATION_TYPE":"U","NORAD_CAT_ID":40890,"ELEMENT_SET_NO":999,"REV_AT_EPOCH":6850,"BSTAR":0,"MEAN_MOTION_DOT":-2e-8,"MEAN_MOTION_DDOT":0},{"OBJECT_NAME":"BEIDOU-3S IGSO-2S (C56)","OBJECT_ID":"2015-053A","EPOCH":"2026-09-10T23:03:27.860832","MEAN_MOTION":1.00285074,"ECCENTRICITY":0.0065681,"INCLINATION":49.0947,"RA_OF_ASC_NODE":257.7528,"ARG_OF_PERICENTER":192.4722,"MEAN_ANOMALY":341.2961,"EPHEMERIS_TYPE":0,"CLASSIFICATION_TYPE":"U","NORAD_CAT_ID":40938,"ELEMENT_SET_NO":999,"REV_AT_EPOCH":4021,"BSTAR":0,"MEAN_MOTION_DOT":-0.00000124,"MEAN_MOTION_DDOT":0},{"OBJECT_NAME":"GPS BIIF-11 (PRN 10)","OBJECT_ID":"2015-062A","EPOCH":"2026-09-12T00:42:05.699232","MEAN_MOTION":2.00566941,"ECCENTRICITY":0.01158209,"INCLINATION":57.0156,"RA_OF_ASC_NODE":27.4729,"ARG_OF_PERICENTER":231.0497,"MEAN_ANOMALY":127.9112,"EPHEMERIS_TYPE":0,"CLASSIFICATION_TYPE":"U","NORAD_CAT_ID":41019,"ELEMENT_SET_NO":999,"REV_AT_EPOCH":7957,"BSTAR":0,"MEAN_MOTION_DOT":-9.2e-7,"MEAN_MOTION_DDOT":0},{"OBJECT_NAME":"GSAT-15 (GAGAN/PRN 139)","OBJECT_ID":"2015-065A","EPOCH":"2026-09-12T02:22:25.608864","MEAN_MOTION":1.0026943,"ECCENTRICITY":0.00016503,"INCLINATION":0.0447,"RA_OF_ASC_NODE":264.7267,"ARG_OF_PERICENTER":239.0915,"MEAN_ANOMALY":336.379,"EPHEMERIS_TYPE":0,"CLASSIFICATION_TYPE":"U","NORAD_CAT_ID":41028,"ELEMENT_SET_NO":999,"REV_AT_EPOCH":3967,"BSTAR":0,"MEAN_MOTION_DOT":-0.00000272,"MEAN_MOTION_DDOT":0},{"OBJECT_NAME":"GSAT0209 (GALILEO 12)","OBJECT_ID":"2015-079A","EPOCH":"2026-09-10T02:15:20.222784","MEAN_MOTION":1.70473608,"ECCENTRICITY":0.00036987,"INCLINATION":55.8813,"RA_OF_ASC_NODE":98.9312,"ARG_OF_PERICENTER":16.5279,"MEAN_ANOMALY":343.5809,"EPHEMERIS_TYPE":0,"CLASSIFICATION_TYPE":"U","NORAD_CAT_ID":41174,"ELEMENT_SET_NO":999,"REV_AT_EPOCH":6622,"BSTAR":0,"MEAN_MOTION_DOT":2.1e-7,"MEAN_MOTION_DDOT":0},{"OBJECT_NAME":"GSAT0208 (GALILEO 11)","OBJECT_ID":"2015-079B","EPOCH":"2026-09-10T21:37:29.789472","MEAN_MOTION":1.70473654,"ECCENTRICITY":0.00051705,"INCLINATION":55.879,"RA_OF_ASC_NODE":98.9063,"ARG_OF_PERICENTER":45.8921,"MEAN_ANOMALY":314.2454,"EPHEMERIS_TYPE":0,"CLASSIFICATION_TYPE":"U","NORAD_CAT_ID":41175,"ELEMENT_SET_NO":999,"REV_AT_EPOCH":6665,"BSTAR":0,"MEAN_MOTION_DOT":1.8e-7,"MEAN_MOTION_DDOT":0}]